Other Public Products
Issued by NWS Grand Forks, ND

Home | Current Version | Previous Version | Text Only | Print | Product List | Glossary On
Versions: 1 2 3 4 5 6 7 8 9 10 11 12 13 14 15 16 17 18 19 20 21 22 23 24 25 26 27 28 29 30 31 32 33 34 35 36 37 38 39 40 41 42 43 44 45 46 47 48 49 50
891
FPUS83 KFGF 271710
OPUFGF
PRAIRIE TO PINES WEATHER ROUNDUP
NATIONAL WEATHER SERVICE EASTERN NORTH DAKOTA/GRAND FORKS ND
1200 PM CDT THU JUL 27 2017

 **SATELLITE DATA USED TO AUGMENT SKY COVER AT AUTOMATED STATIONS**
 *****  WEATHER ACROSS EASTERN NORTH DAKOTA  *****

CITY           SKY/WX    TMP DP  RH WIND       PRES   REMARKS
GRAND FORKS    FAIR      81  61  50 W5        30.11F
GRAND FORKS AF FAIR      80  57  45 NW3       30.13S
GRAND CITY NWS NOT AVBL
BUXTON         NOT AVBL
DEVILS LAKE    FAIR      78  57  48 VRB5      30.15S
FARGO          FAIR      81  61  50 N5        30.12S
WAHPETON ARPT  FAIR      79  57  47 CALM      30.13S
$$

 *****  WEATHER ACROSS CENTRAL AND WESTERN NORTH DAKOTA  *****

CITY           SKY/WX    TMP DP  RH WIND       PRES   REMARKS
JAMESTOWN      FAIR      79  57  46 E5        30.14S
BISMARCK       CLOUDY    76  60  57 E7        30.14R
MINOT          FAIR      76  57  51 S6        30.11S
MINOT AFB      FAIR      75  58  54 SE7       30.10S
GARRISON         N/A     64  62  93 S15       30.11F
WILLISTON      LGT RAIN  66  60  81 S6        30.08F
DICKINSON      FAIR      81  61  50 E17G23    30.12R
HETTINGER      FAIR      84  56  38 SE15      30.12S
$$

 *****  OTHER OBSERVATIONS NORTHEAST NORTH DAKOTA  *****

CITY           SKY/WX    TMP DP  RH WIND       PRES   REMARKS
WALHALLA       NOT AVBL
LANGDON        FAIR      81  63  54 CALM      30.15S
CAVALIER       FAIR      79  63  57 VRB7      30.11S
GRAFTON        FAIR      81  63  54 SW6       30.13S
CANDO          NOT AVBL
FORT TOTTEN      N/A     81  62  51 NW2       29.95S
ROLLA            N/A     75  57  53 S6        30.15S
RUGBY          NOT AVBL
 ***** THE ABOVE OBSERVATIONS ARE NON NWS ARE NOT QUALITY
        CONTROLLED AND MAY MIS-REPORT RAIN FOR SNOW...
$$

 *****  OTHER OBSERVATIONS SOUTHEAST NORTH DAKOTA *****

CITY           SKY/WX    TMP DP  RH WIND       PRES   REMARKS
COOPERSTOWN    FAIR      77  59  53 E6        30.15S
VALLEY CITY    FAIR      75  57  53 MISG      30.16S
OAKES          NOT AVBL
GWINNER        SUNNY     77  61  57 CALM      30.14S
SHEYENNE NWR     N/A     80  59  48 SE3       29.95S
BUFFALO        NOT AVBL
WYNDMERE       NOT AVBL
 ***** THE ABOVE OBSERVATIONS ARE NON NWS ARE NOT QUALITY
       CONTROLLED AND MAY MIS-REPORT RAIN FOR SNOW...
$$

  *****  WEATHER ACROSS NORTHERN MINNESOTA  *****

CITY           SKY/WX    TMP DP  RH WIND       PRES   REMARKS
FLAG ISLAND    FAIR      79  57  47 CALM      30.10S
WARROAD        FAIR      79  64  61 CALM      30.12S
ROSEAU         FAIR      79  64  61 CALM      30.12S
HALLOCK        FAIR      81  64  57 NW8       30.10S
THF RVR FALLS  FAIR      77  62  59 SW7       30.14F
HALSTAD        NOT AVBL
FOSSTON        FAIR      77  63  61 NW6       30.15S
BAUDETTE       FAIR      79  60  52 NW7       30.12
WASKISH        FAIR      79  64  61 W7        30.12F
CROOKSTON      FAIR      77  61  57 CALM      30.13F
$$
  *****  WEATHER ACROSS CENTRAL AND WEST MINNESOTA  *****

CITY           SKY/WX    TMP DP  RH WIND       PRES   REMARKS
BEMIDJI        PTSUNNY   78  56  47 N8        30.13F
PARK RAPIDS    FAIR      79  57  46 VRB7      30.13S
WADENA         FAIR      77  57  50 CALM      30.13F
DETROIT LAKES  FAIR      77  59  53 N5        30.15F
MOORHEAD       FAIR      79  61  53 N3        30.13S
FERGUS FALLS   FAIR      79  61  53 CALM      30.12S
ELBOW LAKE     FAIR      76  60  57 CALM      30.14F HAZE
MORRIS MN      FAIR      81  61  50 CALM      30.12F
STAPLES        PTSUNNY   77  57  50 W3        30.13S
WHEATON        FAIR      79  57  47 NW3       30.14F
$$
  *****  WEATHER ELSEWHERE ACROSS MINNESOTA  *****

CITY           SKY/WX    TMP DP  RH WIND       PRES   REMARKS
DULUTH         PTSUNNY   74  58  57 E12       30.11S
INTRNTL FALLS  FAIR      79  60  52 VRB3      30.11S
ELY            FAIR      75  55  50 CALM      30.11F
CLOQUET        FAIR      75  54  46 E5        30.11S
BRAINERD       FAIR      79  56  45 N6        30.12S
HIBBING        FAIR      77  54  44 NW5       30.11F
ALEXANDRIA     FAIR      78  58  49 NW5       30.15S
SAINT CLOUD    PTSUNNY   81  61  50 NE5       30.11S
MINNEAPOLIS    FAIR      82  59  45 CALM      30.07F
$$

  *****  WEATHER ACROSS SOUTH DAKOTA  *****

CITY           SKY/WX    TMP DP  RH WIND       PRES   REMARKS
SIOUX FALLS    PTSUNNY   80  65  59 NW3       30.13S
BROOKINGS      FAIR      75  62  64 NE6       30.15S
WATERTOWN      FAIR      76  58  53 CALM      30.14F
HURON            N/A     79  62  56 MISG      30.13F
SISSETON         N/A     81  59  47 MISG      30.12F
ABERDEEN       FAIR      77  59  53 VRB5      30.14F
MITCHELL       FAIR      79  61  53 VRB3      30.13F
PIERRE         FAIR      83  54  36 SE8       30.11F
MOBRIDGE       FAIR      80  62  54 SE12      30.11F
RAPID CITY     PTSUNNY   66  54  65 S18G35    30.16R
$$

  *****  SOME WEATHER IN NEARBY STATES *****

CITY           SKY/WX    TMP DP  RH WIND       PRES   REMARKS
GLASGOW MT     FAIR      79  53  40 SE20      30.00S
GREAT FALLS MT CLOUDY    79  44  28 W8        30.05S
CHEYENNE WY    FAIR      72  58  61 S13       30.30F
SCOTTSBLUFF NE CLOUDY    75  64  68 SE15      30.19S
OMAHA NE       FAIR      82  63  52 N13       30.06F
DES MOINES IA  PTSUNNY   83  67  58 NE12      30.01S
DAVENPORT IA   FAIR      81  71  71 NE9       29.99F
CHICAGO IL     PTSUNNY   80  68  66 NE15      29.95S
EAU CLAIRE WI  FAIR      80  60  50 NE7       30.05F
LA CROSSE WI   FAIR      83  64  52 NW8       30.04S
$$

  *****  SOME NATIONAL WEATHER *****

CITY           SKY/WX    TMP DP  RH WIND       PRES   REMARKS
LA GUARDIA NY  CLOUDY    77  67  71 SW9       29.96F
RALEIGH NC     PTSUNNY   89  68  49 SW10      30.02F HX  93
ATLANTA GA     FAIR      88  70  55 VRB6      30.08S HX  93
NEW ORLEANS LA FAIR      90  75  61 N8        30.08S HX 100
OKLAHOMA CITY  PTSUNNY   90  65  43 W12       29.99F HX  92
ALBUQUERQUE NM PTSUNNY   75  61  61 SE18      30.27F
SALT LAKE CITY FAIR      79  60  52 SE3       30.18S
LOS ANGELES CA PTSUNNY   72  65  78 W8        29.97S
BOISE ID       FAIR      82  51  34 VRB5      30.11S
SEATTLE WA     CLOUDY    60  53  77 SW7       30.17S
$$

*** WEATHER ACROSS MANITOBA...SASKATCHEWAN AND ONTARIO ***
                ***ONTARIO***

CITY           SKY/WX    TMP DP  RH WIND       PRES   REMARKS
GERALDTON      MOSUNNY   75  45  33 S6        30.10S
THUNDER BAY    MOSUNNY   75  57  53 VRB3      30.09F
SIOUX LOOKOUT  PTSUNNY   75  57  53 NW8       30.11S
TORONTO        CLOUDY    75  66  73 SW2       29.92S
BIG TROUT LK   MOSUNNY   70  55  60 S5        30.08F
PICKLE LAKE    MOSUNNY   73  50  43 VRB3      30.11S
DRYDEN         LGT RAIN  72  61  68 N3        30.11S
KENORA         PTSUNNY   77  57  50 SW3       30.12S
$$
                *** MANITOBA***

CITY           SKY/WX    TMP DP  RH WIND       PRES   REMARKS
BRANDON        MOSUNNY   79  59  50 S6        30.12S
DAUPHIN        SUNNY     81  66  61 VRB2      30.09F
ISLAND LAKE    PTSUNNY   72  59  64 W3        30.06R
PILOT MOUND      N/A     77  57  50 SW1         N/A
THE PAS        MOSUNNY   81  57  44 S9        30.02F
THOMPSON       PTSUNNY   79  64  61 SW7       29.97F
WINNIPEG       MOSUNNY   79  64  61 N3        30.10F
LYNN LAKE      SUNNY     81  57  44 SW8       29.94F
CHURCHILL      MOSUNNY   66  48  52 NE14      29.97S
GILLAM         MOSUNNY   73  63  68 N6        29.96F
$$
                ***SASKATCHEWAN***

CITY           SKY/WX    TMP DP  RH WIND       PRES   REMARKS
ESTEVAN        PTSUNNY   77  59  53 SW14      30.08F
KINDERSLEY     PTSUNNY   81  57  44 S9        29.96S
LLOYDMINSTER   MOSUNNY   73  59  60 S7        29.92F
PRINCE ALBERT  PTSUNNY   75  63  64 SE3       30.02F
REGINA         MOSUNNY   81  57  44 SE15      30.04F
YORKTON        SUNNY     79  59  50 SE9       30.09F



USA.gov is the U.S. government's official web portal to all federal, state and local government web resources and services.